Search for airport 
image banner adimage banner adimage banner ad
image banner ad

NV14 - Juniper

Located in Montello, United States

ICAO - NV14, IATA -

Data provided by Airmate  

General information

Coordinates: N41°21'20" W114°13'48"
Elevation is 5400 feet MSL.
Magnetic variation is 16° East
View others Airports in Nevada

Operational data

Special qualification required
Current time UTC:
Current local time:
Weather at : KENV - Wendover ( 73 km )
METAR: KENV 131056Z AUTO 00000KT 10SM CLR 17/M06 A3000 RMK AO2 SLP117 T01671061
TAF: KENV 130520Z 1306/1406 VRB05KT P6SM SKC FM131600 11008KT P6SM SKC FM132100 18015G25KT P6SM SKC FM140300 VRB05KT P6SM SKC
View NOTAMs / SUP AIP / TFR affecting this airport [VIEW]
Communications frequencies: [VIEW]

Runways:

RWY identifierQFULength (ft)Width (ft)SurfaceLDA (ft)
07210040OTHER
25210040OTHER

Airport contact information

Address: Montello United States

Satellite view of NV14